Time,TemperatureF,DewpointF,PressureIn,WindDirection,WindDirectionDegrees,WindSpeedMPH,WindSpeedGustMPH,Humidity,HourlyPrecipIn,Conditions,Clouds,dailyrainin,SoftwareType,DateUTC
2013-01-28 00:02:00,67.0,65.0,30.13,SE,143,0.0,4.0,93,0.00,,,0.00,,2013-01-28 06:02:00,
2013-01-28 00:11:00,67.0,65.0,30.13,SE,143,0.0,4.0,93,0.00,,,0.00,,2013-01-28 06:11:00,
2013-01-28 00:22:00,67.0,65.0,30.13,SSE,163,0.0,4.0,93,0.00,,,0.00,,2013-01-28 06:22:00,
2013-01-28 00:32:00,67.0,65.0,30.13,SSW,203,0.0,5.0,93,0.00,,,0.00,,2013-01-28 06:32:00,
2013-01-28 00:42:00,67.0,65.0,30.13,SSW,203,0.0,5.0,93,0.00,,,0.00,,2013-01-28 06:42:00,
2013-01-28 00:52:00,67.0,65.0,30.13,SE,141,0.0,5.0,93,0.00,,,0.00,,2013-01-28 06:52:00,
2013-01-28 01:02:00,67.0,65.0,30.13,SSE,154,0.0,5.0,93,0.00,,,0.00,,2013-01-28 07:02:00,
2013-01-28 01:11:00,67.0,65.0,30.13,SSE,154,0.0,5.0,93,0.00,,,0.00,,2013-01-28 07:11:00,
2013-01-28 01:21:00,66.0,64.0,30.13,WNW,298,0.0,1.0,93,0.00,,,0.00,,2013-01-28 07:21:00,
2013-01-28 01:32:00,66.0,64.0,30.13,SSE,165,0.0,2.0,93,0.00,,,0.00,,2013-01-28 07:32:00,
2013-01-28 01:41:00,66.0,64.0,30.13,SSE,165,0.0,2.0,93,0.00,,,0.00,,2013-01-28 07:41:00,
2013-01-28 01:52:00,66.0,64.0,30.14,SSE,165,0.0,1.0,94,0.00,,,0.00,,2013-01-28 07:52:00,
2013-01-28 02:01:00,66.0,64.0,30.13,SSE,165,0.0,0.0,94,0.00,,,0.00,,2013-01-28 08:01:00,
2013-01-28 02:11:00,66.0,64.0,30.13,SSE,165,0.0,0.0,94,0.00,,,0.00,,2013-01-28 08:11:00,
2013-01-28 02:21:00,66.0,64.0,30.13,SSE,160,0.0,2.0,94,0.00,,,0.00,,2013-01-28 08:21:00,
2013-01-28 02:32:00,66.0,65.0,30.13,SSE,148,0.0,4.0,95,0.00,,,0.00,,2013-01-28 08:32:00,
2013-01-28 02:42:00,66.0,65.0,30.13,SSE,148,0.0,4.0,95,0.00,,,0.00,,2013-01-28 08:42:00,
2013-01-28 02:52:00,66.0,65.0,30.13,SSE,147,1.0,4.0,95,0.00,,,0.00,,2013-01-28 08:52:00,
2013-01-28 03:02:00,66.0,65.0,30.13,SSE,150,0.0,2.0,95,0.00,,,0.00,,2013-01-28 09:02:00,
2013-01-28 03:11:00,66.0,65.0,30.13,SSE,150,0.0,2.0,95,0.00,,,0.00,,2013-01-28 09:11:00,
2013-01-28 03:21:00,66.0,65.0,30.13,SSE,164,0.0,2.0,95,0.00,,,0.00,,2013-01-28 09:21:00,
2013-01-28 03:32:00,66.0,65.0,30.13,SSE,164,0.0,2.0,96,0.00,,,0.00,,2013-01-28 09:32:00,
2013-01-28 03:42:00,66.0,65.0,30.13,SSE,164,0.0,2.0,96,0.00,,,0.00,,2013-01-28 09:42:00,
2013-01-28 03:52:00,66.0,65.0,30.13,SSE,163,0.0,1.0,96,0.00,,,0.00,,2013-01-28 09:52:00,
2013-01-28 04:02:00,66.0,65.0,30.12,SSE,163,0.0,1.0,96,0.00,,,0.00,,2013-01-28 10:02:00,
2013-01-28 04:11:00,66.0,65.0,30.12,SSE,163,0.0,1.0,96,0.00,,,0.00,,2013-01-28 10:11:00,
2013-01-28 04:21:00,66.0,65.0,30.12,ENE,76,0.0,2.0,96,0.00,,,0.00,,2013-01-28 10:21:00,
2013-01-28 04:31:00,66.0,65.0,30.12,ENE,76,0.0,1.0,96,0.00,,,0.00,,2013-01-28 10:31:00,
2013-01-28 04:41:00,66.0,65.0,30.12,ENE,76,0.0,1.0,96,0.00,,,0.00,,2013-01-28 10:41:00,
2013-01-28 04:52:00,66.0,65.0,30.12,SE,140,0.0,4.0,96,0.00,,,0.00,,2013-01-28 10:52:00,
2013-01-28 05:02:00,66.0,65.0,30.11,SE,142,0.0,1.0,96,0.00,,,0.00,,2013-01-28 11:02:00,
2013-01-28 05:11:00,66.0,65.0,30.11,SE,142,0.0,1.0,96,0.00,,,0.00,,2013-01-28 11:11:00,
2013-01-28 05:22:00,66.0,65.0,30.11,SE,146,1.0,6.0,97,0.00,,,0.00,,2013-01-28 11:22:00,
2013-01-28 05:32:00,66.0,65.0,30.11,SSE,161,0.0,5.0,96,0.00,,,0.00,,2013-01-28 11:32:00,
2013-01-28 05:42:00,66.0,65.0,30.11,SSE,161,0.0,5.0,96,0.00,,,0.00,,2013-01-28 11:42:00,
2013-01-28 05:52:00,66.0,65.0,30.11,SSE,148,0.0,2.0,96,0.00,,,0.00,,2013-01-28 11:52:00,
2013-01-28 06:03:00,66.0,65.0,30.11,SSE,165,0.0,1.0,96,0.00,,,0.00,,2013-01-28 12:03:00,
2013-01-28 06:12:00,66.0,65.0,30.11,SSE,165,0.0,1.0,96,0.00,,,0.00,,2013-01-28 12:12:00,
2013-01-28 06:23:00,66.0,65.0,30.12,SE,146,0.0,2.0,96,0.00,,,0.00,,2013-01-28 12:23:00,
2013-01-28 06:33:00,66.0,65.0,30.12,SE,146,0.0,1.0,96,0.00,,,0.00,,2013-01-28 12:33:00,
2013-01-28 06:42:00,66.0,65.0,30.12,SE,146,0.0,1.0,96,0.00,,,0.00,,2013-01-28 12:42:00,
2013-01-28 06:52:00,66.0,65.0,30.13,SSE,147,0.0,2.0,96,0.00,,,0.00,,2013-01-28 12:52:00,
2013-01-28 07:02:00,66.0,65.0,30.13,SSE,153,1.0,4.0,96,0.00,,,0.00,,2013-01-28 13:02:00,
2013-01-28 07:12:00,66.0,65.0,30.13,SSE,153,1.0,4.0,96,0.00,,,0.00,,2013-01-28 13:12:00,
2013-01-28 07:23:00,66.0,65.0,30.14,SSE,150,0.0,2.0,96,0.00,,,0.00,,2013-01-28 13:23:00,
2013-01-28 07:33:00,66.0,65.0,30.14,SSE,155,0.0,5.0,97,0.00,,,0.00,,2013-01-28 13:33:00,
2013-01-28 07:42:00,66.0,65.0,30.14,SSE,155,0.0,5.0,97,0.00,,,0.00,,2013-01-28 13:42:00,
2013-01-28 07:53:00,66.0,65.0,30.14,SSE,155,0.0,1.0,97,0.00,,,0.00,,2013-01-28 13:53:00,
2013-01-28 08:03:00,66.0,65.0,30.15,SSE,161,1.0,4.0,97,0.00,,,0.00,,2013-01-28 14:03:00,
2013-01-28 08:12:00,66.0,65.0,30.15,SSE,161,1.0,4.0,97,0.00,,,0.00,,2013-01-28 14:12:00,
2013-01-28 08:22:00,66.0,65.0,30.15,SSE,160,0.0,1.0,97,0.00,,,0.00,,2013-01-28 14:22:00,
2013-01-28 08:33:00,67.0,66.0,30.15,SSE,156,0.0,4.0,97,0.00,,,0.00,,2013-01-28 14:33:00,
2013-01-28 08:43:00,67.0,66.0,30.15,SSE,156,0.0,4.0,97,0.00,,,0.00,,2013-01-28 14:43:00,
2013-01-28 08:53:00,67.0,66.0,30.15,SSE,147,0.0,4.0,97,0.00,,,0.00,,2013-01-28 14:53:00,
2013-01-28 09:03:00,67.0,66.0,30.15,SE,136,0.0,4.0,97,0.00,,,0.00,,2013-01-28 15:03:00,
2013-01-28 09:12:00,67.0,66.0,30.15,SE,136,0.0,4.0,97,0.00,,,0.00,,2013-01-28 15:12:00,
2013-01-28 09:23:00,68.0,67.0,30.16,SSE,154,0.0,5.0,96,0.00,,,0.00,,2013-01-28 15:23:00,
2013-01-28 09:33:00,68.0,67.0,30.16,SE,141,0.0,4.0,95,0.00,,,0.00,,2013-01-28 15:33:00,
2013-01-28 09:43:00,68.0,67.0,30.16,SE,141,0.0,4.0,95,0.00,,,0.00,,2013-01-28 15:43:00,
2013-01-28 09:53:00,70.0,68.0,30.16,SSE,153,0.0,6.0,93,0.00,,,0.00,,2013-01-28 15:53:00,
2013-01-28 10:04:00,70.0,67.0,30.16,South,176,0.0,5.0,91,0.00,,,0.00,,2013-01-28 16:04:00,
2013-01-28 10:12:00,70.0,67.0,30.16,South,176,0.0,5.0,91,0.00,,,0.00,,2013-01-28 16:12:00,
2013-01-28 10:22:00,71.0,67.0,30.17,SE,144,2.0,8.0,88,0.00,,,0.00,,2013-01-28 16:22:00,
2013-01-28 10:32:00,71.0,67.0,30.17,SSE,166,0.0,4.0,88,0.00,,,0.00,,2013-01-28 16:32:00,
2013-01-28 10:42:00,71.0,67.0,30.17,SSE,166,0.0,4.0,88,0.00,,,0.00,,2013-01-28 16:42:00,
2013-01-28 10:53:00,72.0,68.0,30.16,SW,229,0.0,6.0,86,0.00,,,0.00,,2013-01-28 16:53:00,
2013-01-28 11:02:00,72.0,67.0,30.16,SW,225,1.0,7.0,85,0.00,,,0.00,,2013-01-28 17:02:00,
2013-01-28 11:12:00,72.0,67.0,30.16,SW,225,1.0,7.0,85,0.00,,,0.00,,2013-01-28 17:12:00,
2013-01-28 11:23:00,74.0,68.0,30.16,SSE,150,0.0,6.0,83,0.00,,,0.00,,2013-01-28 17:23:00,
2013-01-28 11:32:00,74.0,68.0,30.16,SSE,150,1.0,7.0,82,0.00,,,0.00,,2013-01-28 17:32:00,
2013-01-28 11:42:00,74.0,68.0,30.16,SSE,150,1.0,7.0,82,0.00,,,0.00,,2013-01-28 17:42:00,
2013-01-28 11:53:00,75.0,69.0,30.15,SSE,150,1.0,6.0,81,0.00,,,0.00,,2013-01-28 17:53:00,
2013-01-28 12:02:00,75.0,68.0,30.15,SSE,157,0.0,7.0,79,0.00,,,0.00,,2013-01-28 18:02:00,
2013-01-28 12:12:00,75.0,68.0,30.15,SSE,157,0.0,7.0,79,0.00,,,0.00,,2013-01-28 18:12:00,
2013-01-28 12:23:00,76.0,69.0,30.14,SE,134,1.0,5.0,78,0.00,,,0.00,,2013-01-28 18:23:00,
2013-01-28 12:33:00,76.0,68.0,30.13,SSW,195,1.0,6.0,76,0.00,,,0.00,,2013-01-28 18:33:00,
2013-01-28 12:42:00,76.0,68.0,30.13,SSW,195,1.0,6.0,76,0.00,,,0.00,,2013-01-28 18:42:00,
2013-01-28 12:52:00,76.0,68.0,30.11,SSE,163,0.0,7.0,76,0.00,,,0.00,,2013-01-28 18:52:00,
2013-01-28 13:02:00,76.0,67.0,30.11,West,271,1.0,6.0,75,0.00,,,0.00,,2013-01-28 19:02:00,
2013-01-28 13:12:00,76.0,67.0,30.11,West,271,1.0,6.0,75,0.00,,,0.00,,2013-01-28 19:12:00,
2013-01-28 13:22:00,76.0,67.0,30.11,South,171,1.0,9.0,75,0.00,,,0.00,,2013-01-28 19:22:00,
2013-01-28 13:32:00,76.0,67.0,30.10,South,190,0.0,7.0,74,0.00,,,0.00,,2013-01-28 19:32:00,
2013-01-28 13:42:00,76.0,67.0,30.10,South,190,0.0,7.0,74,0.00,,,0.00,,2013-01-28 19:42:00,
2013-01-28 13:52:00,77.0,68.0,30.09,South,179,1.0,4.0,74,0.00,,,0.00,,2013-01-28 19:52:00,
2013-01-28 14:02:00,77.0,68.0,30.08,SSW,204,2.0,9.0,74,0.00,,,0.00,,2013-01-28 20:02:00,
2013-01-28 14:12:00,77.0,68.0,30.08,SSW,204,2.0,9.0,74,0.00,,,0.00,,2013-01-28 20:12:00,
2013-01-28 14:22:00,77.0,68.0,30.08,SE,141,2.0,7.0,75,0.00,,,0.00,,2013-01-28 20:22:00,
2013-01-28 14:33:00,77.0,68.0,30.08,SSE,158,2.0,6.0,75,0.00,,,0.00,,2013-01-28 20:33:00,
2013-01-28 14:42:00,77.0,68.0,30.08,SSE,158,2.0,6.0,75,0.00,,,0.00,,2013-01-28 20:42:00,
2013-01-28 14:53:00,77.0,68.0,30.08,South,189,0.0,7.0,75,0.00,,,0.00,,2013-01-28 20:53:00,
2013-01-28 15:03:00,76.0,68.0,30.08,SSW,212,1.0,11.0,76,0.00,,,0.00,,2013-01-28 21:03:00,
2013-01-28 15:12:00,76.0,68.0,30.08,SSW,212,1.0,11.0,76,0.00,,,0.00,,2013-01-28 21:12:00,
2013-01-28 15:22:00,76.0,68.0,30.07,SE,132,0.0,9.0,77,0.00,,,0.00,,2013-01-28 21:22:00,
2013-01-28 15:33:00,76.0,68.0,30.07,SSE,148,1.0,8.0,77,0.00,,,0.00,,2013-01-28 21:33:00,
2013-01-28 15:43:00,76.0,68.0,30.07,SSE,148,1.0,8.0,77,0.00,,,0.00,,2013-01-28 21:43:00,
2013-01-28 15:53:00,76.0,68.0,30.07,South,180,0.0,8.0,77,0.00,,,0.00,,2013-01-28 21:53:00,
2013-01-28 16:02:00,75.0,68.0,30.07,SSE,161,0.0,11.0,78,0.00,,,0.00,,2013-01-28 22:02:00,
2013-01-28 16:11:00,75.0,68.0,30.07,SSE,161,0.0,11.0,78,0.00,,,0.00,,2013-01-28 22:11:00,
2013-01-28 16:23:00,74.0,67.0,30.07,ENE,78,0.0,5.0,80,0.00,,,0.00,,2013-01-28 22:23:00,
2013-01-28 16:32:00,74.0,68.0,30.07,SSE,150,1.0,7.0,81,0.00,,,0.00,,2013-01-28 22:32:00,
2013-01-28 16:42:00,74.0,68.0,30.07,SSE,150,1.0,7.0,81,0.00,,,0.00,,2013-01-28 22:42:00,
2013-01-28 16:52:00,73.0,68.0,30.07,SSE,167,3.0,9.0,83,0.00,,,0.00,,2013-01-28 22:52:00,
2013-01-28 17:02:00,73.0,68.0,30.07,ESE,103,1.0,5.0,84,0.00,,,0.00,,2013-01-28 23:02:00,
2013-01-28 17:12:00,73.0,68.0,30.07,ESE,103,1.0,5.0,84,0.00,,,0.00,,2013-01-28 23:12:00,
2013-01-28 17:22:00,73.0,69.0,30.06,SE,130,2.0,8.0,86,0.00,,,0.00,,2013-01-28 23:22:00,
2013-01-28 17:32:00,72.0,68.0,30.06,SE,142,3.0,8.0,86,0.00,,,0.00,,2013-01-28 23:32:00,
2013-01-28 17:42:00,72.0,68.0,30.06,SE,142,3.0,8.0,86,0.00,,,0.00,,2013-01-28 23:42:00,
2013-01-28 17:53:00,72.0,68.0,30.06,SE,138,2.0,9.0,87,0.00,,,0.00,,2013-01-28 23:53:00,
2013-01-28 18:02:00,72.0,68.0,30.06,SE,146,2.0,8.0,88,0.00,,,0.00,,2013-01-29 00:02:00,
2013-01-28 18:12:00,72.0,68.0,30.06,SE,146,2.0,8.0,88,0.00,,,0.00,,2013-01-29 00:12:00,
2013-01-28 18:22:00,71.0,68.0,30.06,SSE,163,1.0,7.0,89,0.00,,,0.00,,2013-01-29 00:22:00,
2013-01-28 18:32:00,71.0,68.0,30.06,SSE,158,0.0,5.0,90,0.00,,,0.00,,2013-01-29 00:32:00,
2013-01-28 18:42:00,71.0,68.0,30.06,SSE,158,0.0,5.0,90,0.00,,,0.00,,2013-01-29 00:42:00,
2013-01-28 18:52:00,71.0,68.0,30.06,South,174,3.0,7.0,91,0.00,,,0.00,,2013-01-29 00:52:00,
2013-01-28 19:02:00,70.0,67.0,30.06,SE,138,1.0,8.0,91,0.00,,,0.00,,2013-01-29 01:02:00,
2013-01-28 19:12:00,70.0,67.0,30.06,SE,138,1.0,8.0,91,0.00,,,0.00,,2013-01-29 01:12:00,
2013-01-28 19:22:00,70.0,68.0,30.06,SSE,149,2.0,7.0,92,0.00,,,0.00,,2013-01-29 01:22:00,
2013-01-28 19:32:00,70.0,68.0,30.05,ESE,123,2.0,9.0,93,0.00,,,0.00,,2013-01-29 01:32:00,
2013-01-28 19:42:00,70.0,68.0,30.05,ESE,123,2.0,9.0,93,0.00,,,0.00,,2013-01-29 01:42:00,
2013-01-28 19:52:00,70.0,68.0,30.05,East,97,3.0,7.0,93,0.00,,,0.00,,2013-01-29 01:52:00,
2013-01-28 20:02:00,70.0,68.0,30.05,South,173,1.0,12.0,93,0.00,,,0.00,,2013-01-29 02:02:00,
2013-01-28 20:12:00,70.0,68.0,30.05,South,173,1.0,12.0,93,0.00,,,0.00,,2013-01-29 02:12:00,
2013-01-28 20:22:00,69.0,67.0,30.05,ESE,112,1.0,5.0,94,0.00,,,0.00,,2013-01-29 02:22:00,
2013-01-28 20:32:00,69.0,67.0,30.05,SSE,153,2.0,6.0,94,0.00,,,0.00,,2013-01-29 02:32:00,
2013-01-28 20:42:00,69.0,67.0,30.05,SSE,153,2.0,6.0,94,0.00,,,0.00,,2013-01-29 02:42:00,
2013-01-28 20:53:00,69.0,68.0,30.05,SE,141,1.0,6.0,95,0.00,,,0.00,,2013-01-29 02:53:00,
2013-01-28 21:03:00,69.0,68.0,30.05,SSE,157,2.0,6.0,95,0.00,,,0.00,,2013-01-29 03:03:00,
2013-01-28 21:11:00,69.0,68.0,30.05,SSE,157,2.0,6.0,95,0.00,,,0.00,,2013-01-29 03:11:00,
2013-01-28 21:22:00,69.0,68.0,30.05,ESE,120,0.0,6.0,95,0.00,,,0.00,,2013-01-29 03:22:00,
2013-01-28 21:32:00,69.0,68.0,30.05,SE,145,0.0,4.0,95,0.00,,,0.00,,2013-01-29 03:32:00,
2013-01-28 21:42:00,69.0,68.0,30.05,SE,145,0.0,4.0,95,0.00,,,0.00,,2013-01-29 03:42:00,
2013-01-28 21:53:00,69.0,67.0,30.05,SSE,168,0.0,5.0,94,0.00,,,0.00,,2013-01-29 03:53:00,
2013-01-28 22:02:00,69.0,67.0,30.05,SE,142,1.0,6.0,94,0.00,,,0.00,,2013-01-29 04:02:00,
2013-01-28 22:11:00,69.0,67.0,30.05,SE,142,1.0,6.0,94,0.00,,,0.00,,2013-01-29 04:11:00,
2013-01-28 22:21:00,69.0,67.0,30.05,SSE,155,1.0,10.0,94,0.00,,,0.00,,2013-01-29 04:21:00,
2013-01-28 22:32:00,69.0,68.0,30.04,SSE,149,1.0,7.0,95,0.00,,,0.00,,2013-01-29 04:32:00,
2013-01-28 22:41:00,69.0,68.0,30.04,SSE,149,1.0,7.0,95,0.00,,,0.00,,2013-01-29 04:41:00,
2013-01-28 22:52:00,69.0,68.0,30.05,SSE,161,2.0,9.0,95,0.00,,,0.00,,2013-01-29 04:52:00,
2013-01-28 23:03:00,69.0,68.0,30.05,South,182,0.0,11.0,95,0.00,,,0.00,,2013-01-29 05:03:00,
2013-01-28 23:12:00,69.0,68.0,30.05,South,182,0.0,11.0,95,0.00,,,0.00,,2013-01-29 05:12:00,
2013-01-28 23:21:00,69.0,68.0,30.04,SSE,149,1.0,10.0,95,0.00,,,0.00,,2013-01-29 05:21:00,
2013-01-28 23:32:00,69.0,68.0,30.04,SE,142,1.0,6.0,95,0.00,,,0.00,,2013-01-29 05:32:00,
2013-01-28 23:42:00,69.0,68.0,30.04,SE,142,1.0,6.0,95,0.00,,,0.00,,2013-01-29 05:42:00,
2013-01-28 23:52:00,69.0,68.0,30.04,SE,138,3.0,7.0,96,0.00,,,0.00,,2013-01-29 05:52:00,